Weather reports worldwide

Advertisment
Exeter Airport No. 2, United Kingdom (3844): temperature & dewpoint: 16.07.2019 03:00:00 - 22.07.2019 03:00:00 (BST)Exeter Airport No. 2, United Kingdom (3844): wind speed: 16.07.2019 03:00:00 - 22.07.2019 03:00:00 (BST)Exeter Airport No. 2, United Kingdom (3844): wind direction: 16.07.2019 03:00:00 - 22.07.2019 03:00:00 (BST)Exeter Airport No. 2, United Kingdom (3844): reduced air pressure: 16.07.2019 03:00:00 - 22.07.2019 03:00:00 (BST)Exeter Airport No. 2, United Kingdom (3844): visibility: 16.07.2019 03:00:00 - 22.07.2019 03:00:00 (BST)Exeter Airport No. 2, United Kingdom (3844): sunshine duration: 16.07.2019 03:00:00 - 22.07.2019 03:00:00 (BST)Exeter Airport No. 2, United Kingdom (3844): precipitation: 16.07.2019 03:00:00 - 22.07.2019 03:00:00 (BST)
Date & Time tt [°C] td [°C] ff [km/h] ff [kn] dd ppp [hPa] vv [km] sd [min] rr [mm]
22.07.2019 03:00:00 - - - - - - - - 0,0
22.07.2019 02:00:00 18,3 15,7 16 9 S 1021,2 21 0 0,0
22.07.2019 01:00:00 17,7 15,5 15 8 SSW 1021,5 20 - 0,0
22.07.2019 00:00:00 17,9 15,4 11 6 S 1021,5 22 0 0,0
21.07.2019 23:00:00 18,1 15,4 11 6 S 1021,7 17 0 0,0
21.07.2019 22:00:00 18,7 15,3 11 6 SSW 1021,6 22 0 0,0
21.07.2019 21:00:00 19,1 14,8 15 8 SSW 1021,2 25 0 0,0
21.07.2019 20:00:00 20,1 14,5 18 10 SW 1021,1 25 30 0,0
21.07.2019 19:00:00 20,5 14,1 18 10 SSW 1020,9 30 18 0,0
21.07.2019 18:00:00 21,7 13,7 21 11 SW 1020,7 35 54 0,0
21.07.2019 17:00:00 21,4 13,9 21 11 SSW 1020,7 30 42 0,0
21.07.2019 16:00:00 21,8 14,3 22 12 S 1020,9 25 36 0,0
21.07.2019 15:00:00 22,6 13,1 22 12 SSW 1021,0 35 30 0,0
21.07.2019 14:00:00 22,8 14,7 22 12 S 1021,0 21 42 0,0
21.07.2019 13:00:00 22,1 14,3 22 12 SSW 1020,6 24 24 0,0
21.07.2019 12:00:00 21,1 14,8 21 11 SSW 1020,9 23 24 0,0
21.07.2019 11:00:00 18,7 15,1 15 8 S 1020,6 20 0 0,0
21.07.2019 10:00:00 18,1 15,2 13 7 S 1020,7 29 0 0,0
21.07.2019 09:00:00 17,4 14,5 13 7 SSW 1020,4 13 12 0,0
21.07.2019 08:00:00 17,2 14,4 13 7 SSW 1019,8 35 60 0,0
21.07.2019 07:00:00 15,8 14,4 9 5 S 1019,5 30 18 0,0
21.07.2019 06:00:00 13,8 13,0 2 1 E 1019,3 28 0 0,0
21.07.2019 05:00:00 13,5 12,3 0 0 N 1018,8 26 0 0,0
21.07.2019 04:00:00 14,0 12,7 2 1 ESE 1018,3 26 0 0,0
21.07.2019 03:00:00 14,0 12,8 2 1 SE 1018,1 30 0 0,0
21.07.2019 02:00:00 12,3 11,5 4 2 SSE 1018,2 27 0 0,0
21.07.2019 01:00:00 12,2 11,1 5 3 S 1018,0 19 - 0,0
21.07.2019 00:00:00 12,5 10,8 2 1 S 1017,6 22 0 0,0
20.07.2019 23:00:00 13,5 11,0 2 1 SE 1017,1 26 0 0,0
20.07.2019 22:00:00 15,7 11,3 8 4 W 1016,5 19 0 0,0
20.07.2019 21:00:00 17,2 10,0 13 7 WNW 1015,4 13 36 0,0
20.07.2019 20:00:00 18,8 10,0 16 9 WNW 1014,4 13 54 0,0
20.07.2019 19:00:00 19,7 10,3 16 9 WNW 1013,6 12 36 0,0
20.07.2019 18:00:00 20,2 10,3 24 13 W 1013,0 9 12 0,0
20.07.2019 17:00:00 21,1 11,8 22 12 WNW 1012,2 12 36 0,0
20.07.2019 16:00:00 21,4 11,1 24 13 W 1011,6 11 24 0,0
20.07.2019 15:00:00 20,8 10,5 22 12 W 1010,7 13 54 0,0
20.07.2019 14:00:00 21,0 11,6 24 13 WNW 1010,2 9 42 0,0
20.07.2019 13:00:00 20,3 12,6 21 11 WNW 1009,5 9 30 0,0
20.07.2019 12:00:00 20,7 11,9 26 14 W 1008,8 30 42 0,0
20.07.2019 11:00:00 18,9 11,1 24 13 W 1008,4 29 18 0,0
20.07.2019 10:00:00 18,9 12,9 22 12 W 1007,7 35 18 0,0
20.07.2019 09:00:00 17,4 13,8 16 9 W 1007,1 35 0 0,0
20.07.2019 08:00:00 17,4 14,3 11 6 W 1006,3 35 6 0,0
20.07.2019 07:00:00 16,7 15,2 8 4 SSW 1005,7 25 0 0,0
20.07.2019 06:00:00 16,5 14,7 8 4 SSW 1005,4 30 0 0,0
20.07.2019 05:00:00 16,0 15,3 13 7 S 1004,9 16 0 0,0
20.07.2019 04:00:00 16,5 15,5 8 4 S 1005,1 15 0 0,0
20.07.2019 03:00:00 16,9 15,3 11 6 SW 1005,3 30 0 0,0
20.07.2019 02:00:00 17,1 16,4 18 10 S 1005,7 25 0 0,2
20.07.2019 01:00:00 17,5 16,2 9 5 S 1006,0 10 - 0,0
20.07.2019 00:00:00 17,6 16,5 13 7 SSW 1006,3 9 0 0,0
19.07.2019 23:00:00 17,5 15,9 8 4 SSW 1007,0 21 0 0,0
19.07.2019 22:00:00 17,6 15,6 9 5 SSW 1007,3 25 0 0,4
19.07.2019 21:00:00 18,3 15,8 13 7 SW 1007,8 18 0 0,0
19.07.2019 20:00:00 18,5 16,3 16 9 SSW 1007,6 17 0 0,0
19.07.2019 19:00:00 18,7 16,8 13 7 SSW 1008,1 15 0 0,0
19.07.2019 18:00:00 18,5 17,0 15 8 SW 1008,5 15 0 1,0
19.07.2019 17:00:00 19,0 17,0 13 7 SSW 1008,7 11 0 0,0
19.07.2019 16:00:00 19,5 17,0 28 15 SW 1008,8 25 0 0,0
19.07.2019 15:00:00 19,7 17,9 22 12 SSW 1008,8 21 0 0,0
19.07.2019 14:00:00 19,9 17,9 16 9 SW 1009,0 26 0 0,4
19.07.2019 13:00:00 19,9 17,8 18 10 SW 1009,3 17 0 0,0
19.07.2019 12:00:00 20,6 19,1 22 12 SSW 1008,7 30 6 0,2
19.07.2019 11:00:00 18,9 17,9 16 9 SSW 1008,8 7 0 0,0
19.07.2019 10:00:00 17,9 17,4 16 9 S 1009,4 2,5 0 0,2
19.07.2019 09:00:00 17,0 16,5 18 10 S 1009,6 8 0 0,0
19.07.2019 08:00:00 16,1 15,4 21 11 S 1010,1 9 0 0,0
19.07.2019 07:00:00 15,4 14,6 16 9 S 1010,5 3,6 0 0,4
19.07.2019 06:00:00 15,4 14,1 18 10 S 1011,0 15 0 1,2
19.07.2019 05:00:00 15,4 14,7 9 5 SSE 1011,6 3,8 0 3,0
19.07.2019 04:00:00 15,2 14,2 5 3 S 1012,1 17 0 0,0
19.07.2019 03:00:00 12,9 12,0 2 1 E 1012,5 24 0 0,0
19.07.2019 02:00:00 12,5 11,0 4 2 E 1013,1 22 0 0,0
19.07.2019 01:00:00 12,4 11,2 2 1 SE 1013,3 24 - 0,0
19.07.2019 00:00:00 12,0 10,3 2 1 SE 1013,7 23 0 0,0
18.07.2019 23:00:00 13,0 10,2 4 2 ESE 1013,8 28 0 0,0
18.07.2019 22:00:00 15,5 10,8 5 3 W 1013,6 29 0 0,0
18.07.2019 21:00:00 17,6 11,2 13 7 W 1013,1 28 6 0,0
18.07.2019 20:00:00 18,7 11,5 15 8 WNW 1012,8 24 36 0,0
18.07.2019 19:00:00 20,2 10,3 16 9 WNW 1012,5 27 42 0,0
18.07.2019 18:00:00 21,1 10,5 16 9 W 1012,3 29 30 0,0
18.07.2019 17:00:00 20,6 10,5 15 8 WNW 1012,3 29 24 0,0
18.07.2019 16:00:00 20,5 10,5 16 9 WNW 1012,3 29 6 0,0
18.07.2019 15:00:00 20,9 11,4 15 8 WNW 1012,4 30 12 0,0
18.07.2019 14:00:00 19,9 11,0 16 9 W 1012,5 30 6 0,0
18.07.2019 13:00:00 18,7 12,2 16 9 WNW 1012,4 19 0 0,0
18.07.2019 12:00:00 18,0 12,6 13 7 WNW 1012,4 30 0 0,0
18.07.2019 11:00:00 17,7 12,0 13 7 NW 1012,0 30 6 0,0
18.07.2019 10:00:00 16,8 13,3 15 8 WNW 1011,7 28 0 0,0
18.07.2019 09:00:00 16,0 14,0 13 7 WNW 1011,3 25 0 0,0
18.07.2019 08:00:00 16,2 15,1 9 5 W 1010,6 20 0 0,0
18.07.2019 07:00:00 16,5 15,3 9 5 W 1010,1 21 0 0,0
18.07.2019 06:00:00 16,2 15,4 5 3 W 1010,0 19 0 0,0
18.07.2019 05:00:00 15,8 15,0 4 2 NNW 1010,0 24 0 0,0
18.07.2019 04:00:00 16,3 15,4 9 5 W 1009,7 29 0 1,0
18.07.2019 03:00:00 17,3 16,3 13 7 S 1009,9 22 0 0,2
18.07.2019 02:00:00 17,7 15,5 15 8 SSW 1010,6 30 0 0,0
18.07.2019 01:00:00 17,1 15,1 9 5 S 1011,3 20 - 0,0
18.07.2019 00:00:00 17,2 14,0 9 5 S 1011,8 26 0 0,0
17.07.2019 23:00:00 16,8 13,2 8 4 SW 1012,3 28 0 0,0
17.07.2019 22:00:00 18,0 13,0 5 3 W 1012,8 29 0 0,0
17.07.2019 21:00:00 19,4 11,7 15 8 W 1012,6 30 0 0,0
17.07.2019 20:00:00 19,2 13,3 9 5 WNW 1012,6 30 18 0,0
17.07.2019 19:00:00 19,5 13,3 13 7 WNW 1012,5 28 6 0,0
17.07.2019 18:00:00 20,6 13,0 15 8 WNW 1013,0 30 0 0,0
17.07.2019 17:00:00 21,2 14,0 8 4 WNW 1013,3 27 6 0,0
17.07.2019 16:00:00 20,4 14,8 13 7 SE 1013,6 25 0 0,0
17.07.2019 15:00:00 21,0 14,3 15 8 S 1014,0 28 0 0,0
17.07.2019 14:00:00 21,4 13,1 13 7 S 1014,1 29 30 0,0
17.07.2019 13:00:00 21,5 12,9 9 5 SSW 1014,5 30 18 0,0
17.07.2019 12:00:00 21,3 13,3 9 5 SW 1015,1 28 30 0,0
17.07.2019 11:00:00 19,8 13,1 5 3 SE 1015,6 30 6 0,0
17.07.2019 10:00:00 16,6 15,3 2 1 WNW 1015,8 17 30 0,0
17.07.2019 09:00:00 14,4 14,4 2 1 E 1016,2 6 12 0,0
17.07.2019 08:00:00 13,1 13,1 2 1 NE 1016,1 0,1 0 0,0
17.07.2019 07:00:00 12,1 12,0 4 2 ENE 1016,1 - 0 0,0
17.07.2019 06:00:00 11,7 11,6 4 2 NE 1016,2 - 0 0,0
17.07.2019 05:00:00 12,2 12,1 5 3 E 1016,4 - 0 0,0
17.07.2019 04:00:00 12,5 12,4 2 1 N 1016,7 - 0 0,0
17.07.2019 03:00:00 11,2 10,8 4 2 NE 1017,2 0,2 0 0,0
17.07.2019 02:00:00 10,3 9,8 2 1 NNW 1017,8 11 0 0,0
17.07.2019 01:00:00 11,1 10,4 4 2 ENE 1018,1 13 - 0,0
17.07.2019 00:00:00 11,7 10,4 4 2 ENE 1018,3 16 0 0,0
16.07.2019 23:00:00 13,3 11,5 5 3 E 1018,4 20 0 0,0
16.07.2019 22:00:00 14,9 12,7 4 2 E 1018,4 5 0 0,0
16.07.2019 21:00:00 17,4 12,3 5 3 SSE 1018,2 30 0 0,0
16.07.2019 20:00:00 18,5 12,1 11 6 S 1018,3 29 24 0,0
16.07.2019 19:00:00 19,6 12,2 15 8 S 1018,2 35 54 0,0
16.07.2019 18:00:00 20,3 12,0 16 9 S 1018,3 30 60 0,0
16.07.2019 17:00:00 20,5 12,4 16 9 SSE 1018,5 35 60 0,0
16.07.2019 16:00:00 20,7 12,2 16 9 SSE 1018,7 35 60 0,0
16.07.2019 15:00:00 21,5 12,3 15 8 S 1018,9 35 60 0,0
16.07.2019 14:00:00 22,0 12,7 16 9 SE 1019,0 40 60 0,0
16.07.2019 13:00:00 21,6 13,0 15 8 SE 1019,4 40 60 0,0
16.07.2019 12:00:00 21,1 12,7 9 5 SSE 1019,6 35 60 0,0
16.07.2019 11:00:00 20,5 13,3 5 3 WSW 1019,8 30 60 0,0
16.07.2019 10:00:00 18,8 12,7 9 5 SW 1020,0 30 60 -
16.07.2019 09:00:00 16,7 13,0 4 2 W 1020,3 19 60 0,0
16.07.2019 08:00:00 13,6 12,6 2 1 NW 1020,6 9 60 0,0
16.07.2019 07:00:00 10,0 9,7 2 1 ENE 1020,6 15 6 0,0
16.07.2019 06:00:00 9,2 9,0 4 2 NNW 1020,7 6 0 0,0
16.07.2019 05:00:00 8,2 7,7 2 1 NE 1020,6 14 0 0,0
16.07.2019 04:00:00 9,6 9,1 2 1 NE 1020,6 11 0 0,0
16.07.2019 03:00:00 10,3 9,7 2 1 NNE 1020,8 15 0 0,0

tt = temperature
td = dewpoint
ff = wind speed
dd = wind direction
ppp = reduced air pressure
vv = visibility
sd = sunshine duration
rr = precipitation

Next stations